When you browse on this site, cookies collect data to enhance your experience and personalize the content and advertising you see.
Visit our Privacy Policy to learn more. By continuing to use the site, you agree to this use of cookies and data.
  • In United Kingdom
  • List of Countries
  • For 7 days
  • Water Temperature
  • Satellite Maps
  • Weather Map
  • Weather Widgets
  • user-avatar
    Login

    Hourly Weather Lourdes

    Today, 24 April, Wednesday

    Time Temperature Precipitation Wind Pressure Humidity
    00:00 +8°C° 0 mm 1 mps 683 mmHg 93%
    01:00 +6°C° 0.3 mm 2 mps 684 mmHg 93%
    02:00 +5°C° 0.3 mm 2 mps 684 mmHg 93%
    03:00 +5°C° 0.3 mm 2 mps 684 mmHg 92%
    04:00 +5°C° 0 mm 2 mps 684 mmHg 90%
    05:00 +5°C° 0 mm 2 mps 684 mmHg 88%
    06:00 +5°C° 0 mm 2 mps 685 mmHg 86%
    07:00 +7°C° 0 mm 2 mps 685 mmHg 77%
    08:00 +9°C° 0 mm 2 mps 686 mmHg 67%
    09:00 +11°C° 0 mm 3 mps 686 mmHg 57%
    10:00 +11°C° 0 mm 3 mps 686 mmHg 52%
    11:00 +12°C° 0 mm 3 mps 687 mmHg 48%
    12:00 +13°C° 0 mm 4 mps 687 mmHg 43%
    13:00 +13°C° 0.1 mm 4 mps 687 mmHg 44%
    14:00 +14°C° 0.1 mm 4 mps 687 mmHg 45%
    15:00 +14°C° 0.1 mm 4 mps 687 mmHg 46%
    16:00 +13°C° 0.2 mm 4 mps 687 mmHg 52%
    17:00 +12°C° 0.2 mm 3 mps 686 mmHg 58%
    18:00 +11°C° 0.2 mm 3 mps 686 mmHg 64%
    19:00 +10°C° 0.6 mm 3 mps 686 mmHg 70%
    20:00 +10°C° 0.6 mm 2 mps 686 mmHg 75%
    21:00 +9°C° 0.6 mm 2 mps 686 mmHg 81%
    22:00 +9°C° 1.8 mm 2 mps 687 mmHg 85%
    23:00 +8°C° 1.8 mm 2 mps 687 mmHg 89%

    Tomorrow, 25 April, Thursday

    Time Temperature Precipitation Wind Pressure Humidity
    00:00 +8°C° 1.8 mm 2 mps 687 mmHg 93%
    01:00 +8°C° 1.2 mm 2 mps 687 mmHg 93%
    02:00 +8°C° 1.2 mm 2 mps 687 mmHg 94%
    03:00 +8°C° 1.2 mm 2 mps 687 mmHg 94%
    04:00 +8°C° 1.5 mm 2 mps 688 mmHg 94%
    05:00 +8°C° 1.5 mm 2 mps 688 mmHg 93%
    06:00 +8°C° 1.5 mm 2 mps 688 mmHg 92%
    07:00 +9°C° 1.1 mm 2 mps 689 mmHg 87%
    08:00 +10°C° 1.1 mm 2 mps 690 mmHg 83%
    09:00 +12°C° 1.1 mm 2 mps 690 mmHg 78%
    10:00 +13°C° 0.4 mm 2 mps 690 mmHg 68%
    11:00 +13°C° 0.4 mm 3 mps 691 mmHg 58%
    12:00 +14°C° 0.4 mm 3 mps 691 mmHg 48%
    13:00 +13°C° 0.2 mm 3 mps 691 mmHg 51%
    14:00 +13°C° 0.2 mm 3 mps 691 mmHg 54%
    15:00 +13°C° 0.2 mm 2 mps 691 mmHg 57%
    16:00 +12°C° 0.4 mm 2 mps 691 mmHg 64%
    17:00 +11°C° 0.4 mm 1 mps 691 mmHg 70%
    18:00 +10°C° 0.4 mm 1 mps 691 mmHg 76%
    19:00 +9°C° 0.2 mm 1 mps 692 mmHg 76%
    20:00 +7°C° 0.2 mm 2 mps 693 mmHg 76%
    21:00 +7°C° 0.2 mm 2 mps 693 mmHg 76%
    22:00 +6°C° 0.4 mm 2 mps 694 mmHg 77%
    23:00 +6°C° 0.4 mm 2 mps 694 mmHg 78%

    Day after tomorrow, 26 April, Friday

    Time Temperature Precipitation Wind Pressure Humidity
    00:00 +6°C° 0.4 mm 2 mps 694 mmHg 79%
    01:00 +5°C° 0.2 mm 2 mps 695 mmHg 80%
    02:00 +5°C° 0.2 mm 2 mps 695 mmHg 80%
    03:00 +5°C° 0.2 mm 2 mps 696 mmHg 81%
    04:00 +5°C° 0 mm 2 mps 696 mmHg 81%
    05:00 +5°C° 0 mm 2 mps 697 mmHg 80%
    06:00 +4°C° 0 mm 2 mps 697 mmHg 80%
    07:00 +4°C° 0.3 mm 3 mps 698 mmHg 80%
    08:00 +6°C° 0.3 mm 4 mps 698 mmHg 81%
    09:00 +7°C° 0.3 mm 5 mps 699 mmHg 82%
    10:00 +7°C° 0.1 mm 5 mps 700 mmHg 79%
    11:00 +8°C° 0.1 mm 5 mps 700 mmHg 76%
    12:00 +10°C° 0.1 mm 4 mps 701 mmHg 74%
    13:00 +10°C° 0.1 mm 4 mps 701 mmHg 74%
    14:00 +10°C° 0.1 mm 4 mps 701 mmHg 74%
    15:00 +10°C° 0.1 mm 4 mps 701 mmHg 74%
    16:00 +8°C° 0 mm 4 mps 701 mmHg 77%
    17:00 +8°C° 0 mm 3 mps 701 mmHg 80%
    18:00 +7°C° 0 mm 2 mps 701 mmHg 83%
    19:00 +6°C° 0 mm 2 mps 702 mmHg 86%
    20:00 +5°C° 0 mm 2 mps 702 mmHg 89%
    21:00 +5°C° 0 mm 1 mps 703 mmHg 92%
    22:00 +4°C° 0 mm 2 mps 703 mmHg 87%
    23:00 +3°C° 0 mm 2 mps 703 mmHg 82%

    27 April, Saturday

    Time Temperature Precipitation Wind Pressure Humidity
    00:00 +3°C° 0 mm 2 mps 703 mmHg 77%
    01:00 +3°C° 0 mm 2 mps 702 mmHg 74%
    02:00 +3°C° 0 mm 2 mps 702 mmHg 71%
    03:00 +3°C° 0 mm 2 mps 702 mmHg 68%
    04:00 +4°C° 0 mm 2 mps 702 mmHg 71%
    05:00 +5°C° 0 mm 2 mps 702 mmHg 75%
    06:00 +6°C° 0 mm 2 mps 702 mmHg 78%
    07:00 +7°C° 0 mm 2 mps 703 mmHg 77%
    08:00 +8°C° 0 mm 3 mps 703 mmHg 77%
    09:00 +10°C° 0 mm 3 mps 703 mmHg 76%
    10:00 +10°C° 0 mm 4 mps 703 mmHg 73%
    11:00 +11°C° 0 mm 4 mps 703 mmHg 70%
    12:00 +11°C° 0 mm 4 mps 703 mmHg 68%
    13:00 +11°C° 0 mm 4 mps 703 mmHg 68%
    14:00 +11°C° 0 mm 4 mps 703 mmHg 69%
    15:00 +10°C° 0 mm 5 mps 703 mmHg 69%
    16:00 +10°C° 0 mm 4 mps 703 mmHg 72%
    17:00 +7°C° 0 mm 4 mps 703 mmHg 75%
    18:00 +7°C° 0 mm 3 mps 703 mmHg 78%
    19:00 +5°C° 0 mm 3 mps 703 mmHg 79%
    20:00 +4°C° 0 mm 2 mps 703 mmHg 80%
    21:00 +3°C° 0 mm 2 mps 703 mmHg 81%
    22:00 +3°C° 0 mm 2 mps 703 mmHg 79%
    23:00 +2°C° 0 mm 2 mps 703 mmHg 76%

    28 April, Sunday

    Time Temperature Precipitation Wind Pressure Humidity
    00:00 +2°C° 0 mm 2 mps 703 mmHg 73%
    01:00 +2°C° 0 mm 2 mps 703 mmHg 71%
    02:00 +2°C° 0 mm 2 mps 702 mmHg 70%
    03:00 +1°C° 0 mm 2 mps 702 mmHg 68%
    04:00 +2°C° 0 mm 2 mps 702 mmHg 66%
    05:00 +3°C° 0 mm 1 mps 702 mmHg 65%
    06:00 +4°C° 0 mm 1 mps 702 mmHg 63%
    07:00 +6°C° 0 mm 1 mps 702 mmHg 61%
    08:00 +8°C° 0 mm 1 mps 702 mmHg 58%
    09:00 +10°C° 0 mm 1 mps 702 mmHg 56%
    10:00 +11°C° 0 mm 1 mps 702 mmHg 54%
    11:00 +12°C° 0 mm 2 mps 701 mmHg 52%
    12:00 +13°C° 0 mm 2 mps 701 mmHg 50%
    13:00 +13°C° 0 mm 2 mps 701 mmHg 52%
    14:00 +13°C° 0 mm 2 mps 700 mmHg 53%
    15:00 +13°C° 0 mm 2 mps 700 mmHg 55%
    16:00 +12°C° 0 mm 1 mps 699 mmHg 61%
    17:00 +11°C° 0 mm 1 mps 699 mmHg 68%
    18:00 +9°C° 0 mm 0 mps 699 mmHg 75%
    19:00 +9°C° 0 mm 1 mps 699 mmHg 76%
    20:00 +7°C° 0 mm 1 mps 699 mmHg 77%
    21:00 +5°C° 0 mm 2 mps 699 mmHg 78%
    22:00 +4°C° 0 mm 2 mps 699 mmHg 74%
    23:00 +4°C° 0 mm 2 mps 699 mmHg 71%

    29 April, Monday

    Time Temperature Precipitation Wind Pressure Humidity
    00:00 +5°C° 0 mm 1 mps 698 mmHg 67%
    01:00 +5°C° 0 mm 1 mps 698 mmHg 66%
    02:00 +5°C° 0 mm 1 mps 698 mmHg 64%
    03:00 +5°C° 0 mm 1 mps 697 mmHg 62%
    04:00 +5°C° 0 mm 1 mps 697 mmHg 62%
    05:00 +6°C° 0 mm 1 mps 697 mmHg 61%
    06:00 +6°C° 0 mm 1 mps 697 mmHg 60%
    07:00 +9°C° 0 mm 1 mps 697 mmHg 56%
    08:00 +10°C° 0 mm 2 mps 697 mmHg 53%
    09:00 +14°C° 0 mm 2 mps 697 mmHg 49%
    10:00 +15°C° 0 mm 2 mps 696 mmHg 49%
    11:00 +16°C° 0 mm 2 mps 696 mmHg 48%
    12:00 +17°C° 0 mm 2 mps 696 mmHg 47%
    13:00 +17°C° 0 mm 2 mps 695 mmHg 49%
    14:00 +17°C° 0 mm 2 mps 694 mmHg 52%
    15:00 +17°C° 0 mm 2 mps 694 mmHg 54%
    16:00 +16°C° 0 mm 2 mps 693 mmHg 62%
    17:00 +15°C° 0 mm 2 mps 693 mmHg 70%
    18:00 +14°C° 0 mm 2 mps 693 mmHg 77%
    19:00 +12°C° 0 mm 2 mps 693 mmHg 79%
    20:00 +10°C° 0 mm 2 mps 693 mmHg 80%
    21:00 +9°C° 0 mm 2 mps 693 mmHg 81%
    22:00 +9°C° 0 mm 2 mps 692 mmHg 79%
    23:00 +9°C° 0 mm 2 mps 692 mmHg 76%
    Show more